Location: Staunton
(38.1490°N, 79.0720°W)
Time: 03:28:47
(UTC-04:00)

ISS - Pass Details

Date: 14 September 2017
Orbit: 401 x 407 km, 51.6° (Epoch: 23 September)

Event Time Altitude Azimuth Distance (km) Brightness Sun altitude
Rises 06:20:44 0° 319° (NW) 2,333 -0.3 -8.0°
Reaches altitude 10° 06:23:26 10° 343° (NNW) 1,471 -1.1 -7.4°
Maximum altitude 06:25:32 16° 23° (NNE) 1,172 -1.0 -7.0°
Drops below altitude 10° 06:27:38 10° 62° (ENE) 1,467 0.4 -6.6°
Sets 06:30:19 0° 86° (E) 2,324 2.7 -6.1°
